Belleville, IL

3:42 AM CDT on April 23, 2018 (GMT -0500)
Scott Air Force Base-Midamerica

Weather History for KBLV - January, 2014

Change the Weather History Date:

Friday, January 17, 2014

  Actual Average Record
Temperature  
Mean Temperature 20 °F -  
Max Temperature 28 °F 38 °F 74 °F (1952)
Min Temperature 13 °F 21 °F -27 °F (1977)
Degree Days  
Heating Degree Days 44    
Moisture  
Dew Point 10 °F    
Average Humidity 69    
Maximum Humidity 86    
Minimum Humidity 58    
Precipitation  
Precipitation 0.03 in - - ()
Sea Level Pressure  
Sea Level Pressure 30.04 in    
Wind  
Wind Speed 13 mph (WNW)    
Max Wind Speed 21 mph    
Max Gust Speed 31 mph    
Visibility 10 miles    
Events Snow    
Averages and records for this station are not official NWS values.
T = Trace of Precipitation, MM = Missing Value Source: NWS Daily Summary

Daily Weather History Graph

Daily Weather History Graph

Search for Another Location

Airport or City:

Astronomy

Jan. 17, 2014 Rise Set
Actual Time 7:14 AM CST 5:04 PM CST
Civil Twilight 6:45 AM CST 5:33 PM CST
Nautical Twilight 6:13 AM CST 6:06 PM CST
Astronomical Twilight 5:41 AM CST 6:37 PM CST
Moon 6:49 PM CST (1/17) 7:44 AM CST (1/17)
Length of Visible Light 10h 47m
Length of Day
9h 49m
Full, 98% of the Moon is Illuminated
Jan 17
Full
Jan 23
Last Quarter
Jan 30
New
Feb 6
First Quarter
Feb 14
Full

Hourly Weather History & Observations

Time (CST) Temp. Windchill Dew Point Humidity Pressure Visibility Wind Dir Wind Speed Gust Speed Precip Events Conditions
12:05 AM 28.4 °F 15.1 °F 23.0 °F 80% 29.84 in 10.0 mi NW 20.7 mph 25.3 mph N/A   Overcast
12:15 AM 28.4 °F 16.6 °F 23.0 °F 80% 29.84 in 10.0 mi NW 16.1 mph 25.3 mph N/A   Overcast
12:20 AM 28.4 °F 15.1 °F 21.2 °F 74% 29.84 in 10.0 mi NW 20.7 mph 26.5 mph N/A   Overcast
12:25 AM 26.6 °F 13.4 °F 19.4 °F 74% 29.85 in 10.0 mi NW 18.4 mph 29.9 mph N/A   Overcast
12:32 AM 26.6 °F 15.2 °F 19.4 °F 74% 29.85 in 10.0 mi WNW 13.8 mph 29.9 mph N/A   Overcast
12:37 AM 24.8 °F 11.5 °F 17.6 °F 74% 29.86 in 10.0 mi WNW 17.3 mph 25.3 mph N/A   Overcast
12:58 AM 24.1 °F 11.0 °F 16.0 °F 71% 29.89 in 10.0 mi WNW 16.1 mph 21.9 mph 0.01 in   Overcast
1:58 AM 20.7 °F 5.7 °F 7.9 °F 58% 29.92 in 10.0 mi WNW 18.4 mph 31.1 mph 0.02 in   Overcast
2:58 AM 17.8 °F 4.6 °F 9.5 °F 70% 29.96 in 10.0 mi WNW 12.7 mph 23.0 mph N/A   Mostly Cloudy
3:58 AM 15.8 °F -0.2 °F 3.7 °F 59% 29.97 in 10.0 mi West 17.3 mph 28.8 mph N/A   Scattered Clouds
4:58 AM 14.5 °F -0.2 °F 4.3 °F 64% 29.99 in 10.0 mi NW 13.8 mph 19.6 mph N/A   Scattered Clouds
5:38 AM 15.8 °F 5.1 °F 6.8 °F 68% 29.96 in 10.0 mi WNW 8.1 mph 18.4 mph N/A   Mostly Cloudy
5:43 AM 15.8 °F 5.1 °F 6.8 °F 68% 29.97 in 10.0 mi WNW 8.1 mph 16.1 mph N/A   Mostly Cloudy
5:53 AM 15.8 °F 4.2 °F 6.8 °F 68% 29.97 in 10.0 mi WNW 9.2 mph - N/A   Overcast
5:58 AM 15.4 °F 4.6 °F 6.6 °F 68% 30.00 in 10.0 mi WNW 8.1 mph - N/A   Mostly Cloudy
5:59 AM 15.8 °F 5.1 °F 6.8 °F 68% 29.97 in 10.0 mi WNW 8.1 mph - N/A Snow Light Snow
6:04 AM 15.8 °F 4.2 °F 6.8 °F 68% 29.97 in 10.0 mi WNW 9.2 mph - N/A Snow Light Snow
6:14 AM 15.8 °F 3.4 °F 8.6 °F 73% 29.98 in 10.0 mi WNW 10.4 mph - N/A Snow Light Snow
6:44 AM 14.0 °F -2.0 °F 6.8 °F 73% 29.99 in 10.0 mi WNW 16.1 mph 21.9 mph N/A Snow Light Snow
6:56 AM 14.0 °F -0.8 °F 5.0 °F 67% 29.99 in 10.0 mi WNW 13.8 mph 19.6 mph N/A   Overcast
6:58 AM 14.5 °F -0.7 °F 5.7 °F 68% 30.02 in 10.0 mi WNW 15.0 mph 19.6 mph 0.00 in   Overcast
6:59 AM 14.0 °F -1.4 °F 5.0 °F 67% 29.99 in 10.0 mi WNW 15.0 mph 19.6 mph N/A Snow Light Snow
7:12 AM 14.0 °F 1.2 °F 5.0 °F 67% 30.00 in 10.0 mi WNW 10.4 mph 19.6 mph N/A   Overcast
7:22 AM 14.0 °F 0.5 °F 5.0 °F 67% 30.00 in 10.0 mi WNW 11.5 mph 21.9 mph N/A Snow Light Snow
7:44 AM 14.0 °F 1.2 °F 5.0 °F 67% 30.00 in 10.0 mi WNW 10.4 mph - N/A   Mostly Cloudy
7:59 AM 14.7 °F -0.5 °F 5.0 °F 65% 30.04 in 10.0 mi NW 15.0 mph 24.2 mph 0.00 in   Mostly Cloudy
8:56 AM 15.8 °F 5.1 °F 6.8 °F 68% 30.03 in 10.0 mi WNW 8.1 mph - N/A Snow Light Snow
8:58 AM 15.6 °F 4.9 °F 6.4 °F 67% 30.06 in 10.0 mi WNW 8.1 mph - N/A Snow Light Snow
9:22 AM 15.8 °F 3.4 °F 6.8 °F 68% 30.04 in 10.0 mi NW 10.4 mph - N/A   Mostly Cloudy
9:51 AM 15.8 °F 2.1 °F 6.8 °F 68% 30.05 in 10.0 mi NW 12.7 mph 23.0 mph N/A Snow Light Snow
9:55 AM 15.8 °F 2.7 °F 6.8 °F 68% 30.05 in 10.0 mi WNW 11.5 mph 23.0 mph N/A   Scattered Clouds
9:58 AM 16.5 °F 4.3 °F 7.3 °F 67% 30.08 in 10.0 mi WNW 10.4 mph 23.0 mph 0.00 in   Scattered Clouds
10:44 AM 17.6 °F 2.7 °F 8.6 °F 68% 30.05 in 10.0 mi NW 16.1 mph 18.4 mph N/A   Light Freezing Rain
10:50 AM 17.6 °F 3.7 °F 8.6 °F 68% 30.06 in 10.0 mi NW 13.8 mph 19.6 mph N/A   Scattered Clouds
10:54 AM 17.6 °F 2.2 °F 6.8 °F 63% 30.05 in 10.0 mi NW 17.3 mph 21.9 mph N/A Snow Light Snow
10:58 AM 17.1 °F 3.6 °F 7.7 °F 67% 30.09 in 10.0 mi NW 12.7 mph 21.9 mph 0.00 in Snow Light Snow
11:07 AM 17.6 °F 3.2 °F 8.6 °F 68% 30.06 in 10.0 mi WNW 15.0 mph 24.2 mph N/A   Scattered Clouds
11:23 AM 17.6 °F 4.3 °F 8.6 °F 68% 30.06 in 10.0 mi NW 12.7 mph 18.4 mph N/A Snow Light Snow
11:24 AM 17.6 °F 3.7 °F 8.6 °F 68% 30.06 in 10.0 mi NW 13.8 mph 18.4 mph N/A   Scattered Clouds
11:58 AM 18.5 °F 5.5 °F 7.9 °F 63% 30.08 in 10.0 mi NW 12.7 mph 20.7 mph 0.00 in   Mostly Cloudy
12:01 PM 17.6 °F 5.7 °F 8.6 °F 68% 30.05 in 10.0 mi WNW 10.4 mph 18.4 mph N/A Snow Light Snow
12:05 PM 19.4 °F 6.6 °F 8.6 °F 63% 30.05 in 10.0 mi WNW 12.7 mph - N/A   Mostly Cloudy
12:58 PM 19.6 °F 9.7 °F 7.9 °F 60% 30.07 in 10.0 mi WNW 8.1 mph 21.9 mph 0.00 in   Mostly Cloudy
1:33 PM 19.4 °F 6.6 °F 10.4 °F 68% 30.05 in 10.0 mi West 12.7 mph 19.6 mph N/A Snow Light Snow
1:53 PM 17.6 °F 5.7 °F 14.0 °F 86% 30.06 in 0.5 mi West 10.4 mph - N/A Snow Light Snow
1:58 PM 18.5 °F 6.8 °F 14.0 °F 83% 30.09 in 1.0 mi WNW 10.4 mph - 0.00 in Snow Light Snow
2:03 PM 17.6 °F 5.7 °F 14.0 °F 86% 30.06 in 1.8 mi WNW 10.4 mph - N/A Snow Light Snow
2:08 PM 17.6 °F 5.0 °F 12.2 °F 79% 30.06 in 4.0 mi WNW 11.5 mph - N/A Snow Light Snow
2:16 PM 19.4 °F 7.9 °F 10.4 °F 68% 30.07 in 10.0 mi WNW 10.4 mph 16.1 mph N/A   Overcast
2:21 PM 19.4 °F 6.6 °F 10.4 °F 68% 30.07 in 10.0 mi WNW 12.7 mph 19.6 mph N/A   Overcast
2:58 PM 19.2 °F 7.7 °F 9.1 °F 65% 30.12 in 10.0 mi West 10.4 mph - 0.00 in   Mostly Cloudy
3:00 PM 19.4 °F 7.9 °F 10.4 °F 68% 30.08 in 10.0 mi West 10.4 mph - N/A Snow Light Snow
3:15 PM 19.4 °F 9.5 °F 8.6 °F 63% 30.09 in 10.0 mi WNW 8.1 mph - N/A   Mostly Cloudy
3:26 PM 19.4 °F 11.5 °F 8.6 °F 63% 30.09 in 10.0 mi West 5.8 mph - N/A Snow Light Snow
3:41 PM 19.4 °F 7.9 °F 10.4 °F 68% 30.09 in 10.0 mi WNW 10.4 mph - N/A   Overcast
3:56 PM 19.4 °F 9.5 °F 10.4 °F 68% 30.10 in 10.0 mi West 8.1 mph - N/A Snow Light Snow
3:58 PM 19.6 °F 10.6 °F 10.4 °F 68% 30.14 in 10.0 mi West 6.9 mph - 0.00 in Snow Light Snow
4:03 PM 19.4 °F 7.9 °F 10.4 °F 68% 30.10 in 10.0 mi West 10.4 mph - N/A Snow Light Snow
4:08 PM 19.4 °F 7.9 °F 10.4 °F 68% 30.10 in 10.0 mi West 10.4 mph - N/A Snow Light Snow
4:17 PM 19.4 °F 8.6 °F 10.4 °F 68% 30.10 in 10.0 mi WNW 9.2 mph - N/A   Overcast
4:27 PM 19.4 °F 9.5 °F 10.4 °F 68% 30.10 in 10.0 mi West 8.1 mph - N/A   Overcast
4:32 PM 19.4 °F 8.6 °F 10.4 °F 68% 30.10 in 10.0 mi West 9.2 mph - N/A   Overcast
4:47 PM 19.4 °F 9.5 °F 8.6 °F 63% 30.11 in 10.0 mi WNW 8.1 mph - N/A   Overcast
4:52 PM 19.4 °F 9.5 °F 8.6 °F 63% 30.11 in 10.0 mi WNW 8.1 mph - N/A   Overcast
4:58 PM 19.9 °F 12.1 °F 9.3 °F 63% 30.14 in 10.0 mi WNW 5.8 mph - 0.00 in   Overcast
5:18 PM 19.4 °F 9.5 °F 8.6 °F 63% 30.11 in 10.0 mi West 8.1 mph - N/A   Overcast
5:58 PM 17.8 °F 10.9 °F 9.1 °F 69% 30.16 in 10.0 mi West 4.6 mph - N/A   Scattered Clouds
6:58 PM 17.2 °F - 9.1 °F 71% 30.15 in 10.0 mi West 1.2 mph - N/A   Clear
7:58 PM 15.4 °F - 11.1 °F 83% 30.15 in 10.0 mi SW 2.3 mph - N/A   Clear
8:58 PM 13.6 °F 6.0 °F 10.2 °F 86% 30.16 in 10.0 mi SW 4.6 mph - N/A   Clear
9:58 PM 15.3 °F 9.6 °F 9.5 °F 78% 30.15 in 10.0 mi WSW 3.5 mph - N/A   Clear
10:58 PM 15.4 °F 9.8 °F 9.5 °F 77% 30.14 in 10.0 mi WSW 3.5 mph - N/A   Clear
11:58 PM 14.4 °F 6.9 °F 9.1 °F 80% 30.12 in 10.0 mi WSW 4.6 mph - N/A   Clear